Location: Newark
(27.9675°N, 86.8869°E)
Time: 21:33:26
(UTC+00:00)

Courier 1B Rocket - Pass Details

Date: 15 October 2019
Orbit: 920 x 1202 km, 28.2° (Epoch: 20 November)

Event Time Altitude Azimuth Distance (km) Brightness Sun altitude
Rises 22:05:49 0° 236° (WSW) 3,541 - -28.8°
Reaches altitude 10° 22:08:30 10° 231° (SW) 2,600 - -28.2°
Exits shadow 22:13:08 41° 192° (SSW) 1,311 5.5 -27.2°
Maximum altitude 22:14:25 47° 159° (SSE) 1,215 5.5 -26.9°
Drops below altitude 10° 22:20:33 10° 87° (E) 2,690 8.4 -25.6°
Sets 22:23:21 0° 82° (E) 3,674 9.4 -25.0°
